Showing default

METEOR M2-2, 44387

Orbit data source: Space-Track

METEOR M2-2, 44387 is a Commonwealth of Independent States-origin payload satellite in SSO that was launched on Fri, 05 Jul 2019 UTC via a SOYUZ-2-1B launch vehicle from the Vostochny Cosmodrome (VOSTO). Payload-class satellites include a variety of spacecraft equipped with specific instruments for various scientific and technological missions. These include communications satellites like Starlink; space stations such as the ISS; scientific satellites like the Hubble; Earth observation satellites from companies like Planet Labs, Umbra, and HawkEye 360; GPS; miniature CubeSats for education and research; and military/defense satellites.

Loading next visibility...
Identifier
44387, 2019-038A
Orbit
SSO
Country
Flag of CISCIS
Related business
Manufacturer
VNIIEM
Mission
Partially operational Civil Weather
Bus & Motor
RESURS-O, Unknown motor
Mass
2,879 kg wet, ~2,600 kg dry
Launch date (UTC)
2019-07-05 (7 years ago)
Launch vehicle
SOYUZ-2-1B
Launch site
Vostochny Cosmodrome (VOSTO)
Object type
Payload
Rocket body
Debris
Shape & HBR
Cyl + 2 Pan, 7.0 m
Radar Cross Section
26.744 m², Large (>1 m²)

Expand to show TLE details & history
Last TLE update: 10 hours ago

TLE from 10 hours ago
0 METEOR M2-2
1 44387U 19038A   26199.85535330 -.00000065  00000-0 -84212-5 0  9991
2 44387  98.9166 187.6111 0000467 355.6140   4.5034 14.24373360365804
Epoch: 2026-07-18T20:31Z
TLE epoch observation values (Epoch: 2026-07-18T20:31:42.525Z)
Latitude
-0.00001°
Longitude
-56.9782°
Altitude
813.179 km
Speed
7.447 km/s
True Right ascension
12h 30m 26s
True Declination
0° 00' 00"
Sunlit
Object was in daylight at epoch
Visualization orbit readout
Latitude
Unknown
Longitude
Unknown
Altitude
Unknown
Speed
Unknown
Apparent Right ascension
Unknown
Apparent Declination
Unknown
Sunlit
N/A
Visualization observer readout
Local Sidereal Time
19:48:07
Azimuth
Unknown
Elevation
Unknown
Doppler factor
Unknown
Orbital elements
Apogee altitude
808.099 km
Perigee altitude
807.428 km
Semi-major axis
7,185.9 km
Eccentricity
0.00005
Inclination
98.9166°
RAAN
187.6111°
Arg. of periapsis
355.614°
True anomaly
4.50382°
Mean anomaly
4.5034°
Eccentric anomaly
4.50361°
Mean motion
3.56305 °/min
Orbital period
101.04 mins
BSTAR
-0.0000084212
Loading maneuver chart data...
Computing Atmospheric mass density...
Loading historical data...
Loading historical data...
Loading historical data...
Loading historical data...
Loading historical data...
Loading historical data...
Loading historical data...

Documentation

Showing up to 5 results
|